Location: Newark
(51.0500°N, 12.4500°E)
Time: 22:15:59
(UTC+00:00)

Explorer 7 - Visible Passes

Search period start: 18 February 2020 00:00
Search period end: 28 February 2020 00:00
Orbit: 485 x 679 km, 50.3° (Epoch: 17 February)

Date Brightness Start Highest point End Pass type
(mag) Time Alt. Az. Time Alt. Az. Time Alt. Az.
18 Feb 8.1 17:54:59 10° W 17:58:40 33° SSW 18:01:54 12° SE visible
19 Feb 8.7 18:00:04 10° W 18:03:23 24° SW 18:06:35 10° SSE visible
20 Feb 9.3 18:05:22 10° W 18:08:04 17° SW 18:10:41 10° S visible
21 Feb 9.6 18:11:12 10° WSW 18:12:40 12° SW 18:14:06 10° SSW visible
